When you browse on this site, cookies collect data to enhance your experience and personalize the content and advertising you see.
Visit our Privacy Policy to learn more. By continuing to use the site, you agree to this use of cookies and data.
  • In Hungary
  • List of Countries
  • For 7 days
  • Water Temperature
  • Satellite Maps
  • Weather Map
  • News
  • Weather Widgets
  • user-avatar
    Login

    Hourly Weather Wierzbnica

    Today, 24 May, Friday

    Time Temperature Precipitation Wind Pressure Humidity
    00:00 +9°C° 0 mm 1 mps 749 mmHg 80%
    01:00 +9°C° 0 mm 1 mps 749 mmHg 82%
    02:00 +8°C° 0 mm 1 mps 749 mmHg 82%
    03:00 +7°C° 0 mm 0 mps 749 mmHg 81%
    04:00 +7°C° 0 mm 0 mps 749 mmHg 81%
    05:00 +10°C° 0 mm 1 mps 749 mmHg 75%
    06:00 +12°C° 0 mm 1 mps 749 mmHg 69%
    07:00 +14°C° 0 mm 1 mps 749 mmHg 63%
    08:00 +16°C° 0 mm 1 mps 749 mmHg 56%
    09:00 +18°C° 0 mm 1 mps 749 mmHg 49%
    10:00 +20°C° 0 mm 1 mps 749 mmHg 43%
    11:00 +22°C° 0 mm 1 mps 748 mmHg 40%
    12:00 +23°C° 0 mm 1 mps 748 mmHg 37%
    13:00 +22°C° 0 mm 0 mps 748 mmHg 35%
    14:00 +22°C° 0 mm 0 mps 747 mmHg 35%
    15:00 +24°C° 0 mm 1 mps 747 mmHg 35%
    16:00 +24°C° 0 mm 1 mps 746 mmHg 36%
    17:00 +22°C° 0 mm 1 mps 746 mmHg 44%
    18:00 +21°C° 0 mm 1 mps 746 mmHg 52%
    19:00 +19°C° 0 mm 1 mps 746 mmHg 60%
    20:00 +18°C° 0 mm 1 mps 746 mmHg 64%
    21:00 +15°C° 0 mm 1 mps 746 mmHg 69%
    22:00 +14°C° 0 mm 2 mps 746 mmHg 73%
    23:00 +14°C° 0 mm 2 mps 746 mmHg 76%

    Tomorrow, 25 May, Saturday

    Time Temperature Precipitation Wind Pressure Humidity
    00:00 +13°C° 0 mm 2 mps 746 mmHg 80%
    01:00 +13°C° 0 mm 2 mps 746 mmHg 83%
    02:00 +13°C° 0 mm 2 mps 746 mmHg 85%
    03:00 +12°C° 0 mm 2 mps 746 mmHg 88%
    04:00 +11°C° 0 mm 3 mps 746 mmHg 91%
    05:00 +12°C° 0 mm 3 mps 746 mmHg 87%
    06:00 +13°C° 0 mm 3 mps 746 mmHg 83%
    07:00 +16°C° 0 mm 3 mps 746 mmHg 79%
    08:00 +17°C° 0 mm 3 mps 747 mmHg 71%
    09:00 +18°C° 0 mm 4 mps 747 mmHg 63%
    10:00 +19°C° 0 mm 4 mps 747 mmHg 56%
    11:00 +20°C° 0 mm 4 mps 747 mmHg 52%
    12:00 +20°C° 0 mm 4 mps 747 mmHg 49%
    13:00 +21°C° 0 mm 4 mps 747 mmHg 45%
    14:00 +21°C° 0 mm 4 mps 747 mmHg 46%
    15:00 +21°C° 0 mm 4 mps 746 mmHg 46%
    16:00 +21°C° 0 mm 4 mps 746 mmHg 46%
    17:00 +20°C° 0 mm 3 mps 746 mmHg 52%
    18:00 +19°C° 0 mm 3 mps 746 mmHg 58%
    19:00 +17°C° 0 mm 2 mps 746 mmHg 65%
    20:00 +16°C° 0 mm 2 mps 746 mmHg 69%
    21:00 +14°C° 0 mm 2 mps 747 mmHg 74%
    22:00 +13°C° 0 mm 1 mps 747 mmHg 78%
    23:00 +12°C° 0 mm 1 mps 747 mmHg 81%

    Day after tomorrow, 26 May, Sunday

    Time Temperature Precipitation Wind Pressure Humidity
    00:00 +12°C° 0 mm 2 mps 747 mmHg 84%
    01:00 +10°C° 0 mm 2 mps 747 mmHg 87%
    02:00 +10°C° 0 mm 2 mps 747 mmHg 90%
    03:00 +9°C° 0 mm 2 mps 746 mmHg 93%
    04:00 +9°C° 0 mm 3 mps 746 mmHg 95%
    05:00 +10°C° 0 mm 3 mps 746 mmHg 89%
    06:00 +12°C° 0 mm 3 mps 747 mmHg 83%
    07:00 +13°C° 0 mm 4 mps 747 mmHg 78%
    08:00 +14°C° 0 mm 4 mps 747 mmHg 71%
    09:00 +15°C° 0 mm 4 mps 746 mmHg 64%
    10:00 +18°C° 0 mm 4 mps 746 mmHg 57%
    11:00 +19°C° 0 mm 5 mps 746 mmHg 53%
    12:00 +20°C° 0 mm 5 mps 746 mmHg 49%
    13:00 +21°C° 0 mm 5 mps 746 mmHg 45%
    14:00 +21°C° 0 mm 5 mps 745 mmHg 46%
    15:00 +21°C° 0 mm 5 mps 745 mmHg 47%
    16:00 +21°C° 0 mm 5 mps 745 mmHg 47%
    17:00 +20°C° 0 mm 4 mps 745 mmHg 53%
    18:00 +19°C° 0 mm 3 mps 745 mmHg 59%
    19:00 +18°C° 0 mm 2 mps 745 mmHg 65%
    20:00 +17°C° 0 mm 2 mps 745 mmHg 71%
    21:00 +15°C° 0 mm 2 mps 745 mmHg 76%
    22:00 +14°C° 0 mm 2 mps 745 mmHg 81%
    23:00 +14°C° 0 mm 2 mps 745 mmHg 82%

    27 May, Monday

    Time Temperature Precipitation Wind Pressure Humidity
    00:00 +13°C° 0 mm 2 mps 744 mmHg 84%
    01:00 +12°C° 0 mm 3 mps 744 mmHg 85%
    02:00 +12°C° 0 mm 3 mps 744 mmHg 84%
    03:00 +12°C° 0 mm 3 mps 743 mmHg 82%
    04:00 +12°C° 0 mm 3 mps 743 mmHg 80%
    05:00 +14°C° 0 mm 4 mps 743 mmHg 75%
    06:00 +17°C° 0 mm 4 mps 743 mmHg 70%
    07:00 +19°C° 0 mm 5 mps 743 mmHg 65%
    08:00 +20°C° 0 mm 5 mps 743 mmHg 62%
    09:00 +21°C° 0 mm 5 mps 743 mmHg 60%
    10:00 +22°C° 0 mm 6 mps 743 mmHg 58%
    11:00 +22°C° 0.4 mm 6 mps 743 mmHg 59%
    12:00 +22°C° 0.4 mm 6 mps 742 mmHg 61%
    13:00 +22°C° 0.4 mm 6 mps 742 mmHg 63%
    14:00 +22°C° 0.2 mm 6 mps 742 mmHg 62%
    15:00 +22°C° 0.2 mm 6 mps 742 mmHg 61%
    16:00 +22°C° 0.2 mm 5 mps 742 mmHg 60%
    17:00 +20°C° 0 mm 4 mps 742 mmHg 63%
    18:00 +19°C° 0 mm 4 mps 743 mmHg 67%
    19:00 +18°C° 0 mm 3 mps 743 mmHg 71%
    20:00 +16°C° 0 mm 2 mps 743 mmHg 77%
    21:00 +15°C° 0 mm 2 mps 743 mmHg 83%
    22:00 +13°C° 0 mm 1 mps 743 mmHg 89%
    23:00 +13°C° 0 mm 1 mps 743 mmHg 90%

    28 May, Tuesday

    Time Temperature Precipitation Wind Pressure Humidity
    00:00 +13°C° 0 mm 1 mps 743 mmHg 92%
    01:00 +12°C° 0 mm 1 mps 743 mmHg 94%
    02:00 +12°C° 0 mm 1 mps 743 mmHg 94%
    03:00 +12°C° 0 mm 1 mps 743 mmHg 95%
    04:00 +10°C° 0 mm 0 mps 742 mmHg 95%
    05:00 +12°C° 0.1 mm 1 mps 742 mmHg 93%
    06:00 +13°C° 0.1 mm 1 mps 742 mmHg 90%
    07:00 +14°C° 0.1 mm 1 mps 742 mmHg 88%
    08:00 +14°C° 0.4 mm 1 mps 742 mmHg 86%
    09:00 +15°C° 0.4 mm 1 mps 742 mmHg 85%
    10:00 +16°C° 0.4 mm 2 mps 742 mmHg 83%
    11:00 +16°C° 0.9 mm 2 mps 742 mmHg 84%
    12:00 +15°C° 0.9 mm 2 mps 741 mmHg 86%
    13:00 +15°C° 0.9 mm 2 mps 741 mmHg 87%
    14:00 +15°C° 1.1 mm 2 mps 741 mmHg 89%
    15:00 +14°C° 1.1 mm 2 mps 741 mmHg 91%
    16:00 +14°C° 1.1 mm 1 mps 741 mmHg 94%
    17:00 +14°C° 0.2 mm 1 mps 741 mmHg 94%
    18:00 +14°C° 0.2 mm 1 mps 741 mmHg 94%
    19:00 +14°C° 0.2 mm 1 mps 741 mmHg 94%
    20:00 +13°C° 0 mm 2 mps 741 mmHg 95%
    21:00 +13°C° 0 mm 2 mps 742 mmHg 96%
    22:00 +12°C° 0 mm 2 mps 742 mmHg 97%
    23:00 +12°C° 0 mm 2 mps 742 mmHg 97%

    29 May, Wednesday

    Time Temperature Precipitation Wind Pressure Humidity
    00:00 +12°C° 0 mm 2 mps 742 mmHg 97%
    01:00 +12°C° 0 mm 2 mps 742 mmHg 97%
    02:00 +12°C° 0 mm 2 mps 742 mmHg 97%
    03:00 +10°C° 0 mm 2 mps 742 mmHg 97%
    04:00 +10°C° 0 mm 2 mps 743 mmHg 98%
    05:00 +12°C° 0 mm 2 mps 743 mmHg 94%
    06:00 +14°C° 0 mm 2 mps 743 mmHg 90%
    07:00 +14°C° 0 mm 3 mps 744 mmHg 87%
    08:00 +16°C° 0 mm 3 mps 744 mmHg 78%
    09:00 +18°C° 0 mm 3 mps 745 mmHg 70%
    10:00 +19°C° 0 mm 3 mps 745 mmHg 61%
    11:00 +19°C° 0.2 mm 3 mps 745 mmHg 62%
    12:00 +19°C° 0.2 mm 3 mps 745 mmHg 63%
    13:00 +19°C° 0.2 mm 3 mps 746 mmHg 64%
    14:00 +18°C° 1.3 mm 4 mps 746 mmHg 73%
    15:00 +15°C° 1.3 mm 5 mps 746 mmHg 82%
    16:00 +13°C° 1.3 mm 5 mps 746 mmHg 92%
    17:00 +12°C° 1.7 mm 5 mps 747 mmHg 92%
    18:00 +12°C° 1.7 mm 5 mps 747 mmHg 93%
    19:00 +11°C° 1.7 mm 4 mps 748 mmHg 94%
    20:00 +10°C° 0.7 mm 4 mps 748 mmHg 94%
    21:00 +10°C° 0.7 mm 4 mps 749 mmHg 93%
    22:00 +9°C° 0.7 mm 3 mps 750 mmHg 93%
    23:00 +9°C° 0.3 mm 3 mps 750 mmHg 93%
    Show more